EW2138 Weather Reports


time (UTC)temp
F
wind
direction
speed
knots
gust
knots
rain 1hr
in
rain 24hr
in
rain mn
in
humidity
%
barometer
mb
20260504081525 42 200 0.0 3.5 0.00 0.00 0.00 86 1006.2
20260504044546 42 238 0.9 6.1 0.00 0.00 0.00 60 1007.2
20260504043043 42 342 0.0 5.2 0.00 0.00 0.00 57 1007.4
20260504041540 42 265 0.0 5.2 0.00 0.00 0.00 54 1007.6
20260504040059 41 250 0.0 4.3 0.00 0.00 0.00 53 1007.5
20260504034537 41 273 0.9 4.3 0.00 0.00 0.00 52 1007.4
20260504033037 40 219 0.0 0.0 0.00 0.00 0.00 52 1007.3
20260504031537 40 232 0.0 2.6 0.00 0.00 0.00 52 1007.4
20260504030035 40 244 0.0 0.0 0.00 0.00 0.00 52 1007.5
20260504024536 40 286 0.0 0.9 0.00 0.00 0.00 53 1007.5
20260504023034 41 290 0.0 0.0 0.00 0.00 0.00 53 1007.6
20260504021534 40 280 0.0 0.0 0.00 0.00 0.00 54 1007.7
20260504020033 40 297 0.0 0.9 0.00 0.00 0.00 55 1007.6
20260504014532 41 268 0.0 3.5 0.00 0.00 0.00 56 1007.7
20260504013033 40 284 0.0 2.6 0.00 0.00 0.00 56 1007.6
20260504011531 40 300 0.9 3.5 0.00 0.00 0.00 57 1007.5
20260504010031 40 283 0.0 5.2 0.00 0.00 0.00 58 1007.4
20260504004541 40 299 0.0 0.9 0.00 0.00 0.00 58 1007.3
20260504003029 41 298 0.0 3.5 0.00 0.00 0.00 58 1007.2
20260504001529 41 275 0.0 0.0 0.00 0.00 0.00 57 1007.1
20260504000028 42 298 0.0 0.0 0.00 0.00 0.00 56 1007.0
20260503234529 42 310 0.0 3.5 0.00 0.00 0.00 54 1006.9
20260503233027 43 313 0.0 3.5 0.00 0.00 0.00 54 1006.9
20260503231527 43 316 0.0 0.9 0.00 0.00 0.00 55 1006.9
20260503230026 43 302 0.0 2.6 0.00 0.00 0.00 54 1006.9
20260503224526 43 258 0.0 3.5 0.00 0.00 0.00 54 1006.9
20260503223025 44 306 0.0 4.3 0.00 0.00 0.00 51 1006.7
20260503221526 44 310 0.0 0.0 0.00 0.00 0.00 53 1006.8
20260503220025 45 284 0.0 2.6 0.00 0.00 0.00 52 1006.7
20260503214523 44 328 0.9 4.3 0.00 0.00 0.00 53 1006.7
20260503213023 44 244 0.0 4.3 0.00 0.00 0.00 55 1006.8
20260503211522 44 264 0.0 3.5 0.00 0.00 0.00 56 1006.7
20260503210022 44 284 0.0 2.6 0.00 0.00 0.00 56 1006.5
20260503204527 44 284 0.0 6.1 0.00 0.00 0.00 54 1006.6
20260503203020 44 292 0.0 3.5 0.00 0.00 0.00 56 1006.5
20260503201519 44 311 0.0 2.6 0.00 0.00 0.00 57 1006.6
20260503200020 45 311 0.0 3.5 0.00 0.00 0.00 54 1006.7
20260503194517 43 323 0.9 7.0 0.00 0.00 0.00 60 1006.8
20260503193034 43 281 0.9 5.2 0.00 0.00 0.00 55 1006.9
20260503191513 42 329 0.0 6.1 0.00 0.00 0.00 61 1007.1
20260503190004 41 322 0.9 5.2 0.00 0.00 0.00 58 1007.0
20260503184506 42 288 0.0 5.2 0.00 0.00 0.00 56 1007.0
20260503183003 43 315 0.0 6.1 0.00 0.00 0.00 56 1007.0
20260503181503 43 290 0.0 3.5 0.00 0.00 0.00 55 1006.9
20260503180115 42 292 0.0 5.2 0.00 0.00 0.00 56 1007.0
20260503174600 43 261 0.0 5.2 0.00 0.00 0.00 54 1007.0
20260503173102 43 302 0.9 6.1 0.00 0.00 0.00 53 1007.0
20260503171559 43 299 0.9 7.0 0.00 0.00 0.00 53 1007.0